Regional Weather Roundup
Issued by NWS Jackson, KY

Home | Current Version | Previous Version | Text Only | Print | Product List | Glossary Off
Versions: 1 2 3 4 5 6 7 8 9 10 11 12 13 14 15 16 17 18 19 20 21 22 23 24 25 26 27 28

000
ASUS43 KJKL 051610
RWRJKL

EAST KENTUCKY HOURLY WEATHER ROUNDUP
NATIONAL WEATHER SERVICE JACKSON KY
1200 PM EDT THU MAY 05 2016

NOTE: "FAIR" INDICATES FEW OR NO CLOUDS BELOW 12,000 FEET WITH
NO SIGNIFICANT WEATHER AND/OR OBSTRUCTIONS TO VISIBILITY.

* THESE REPORTS ARE NOT UNDER NWS QUALITY CONTROL AND MAY NOT
  REPORT WEATHER SUCH AS PRECIPITATION AND FOG.

KYZ079-080-083-085-087-088-110-112-115-119-120-051700
...EASTERN KENTUCKY...

CITY           SKY/WX    TMP DP  RH WIND       PRES   REMARKS
JACKSON        CLOUDY    47  40  76 VRB3      29.79R
LONDON         MOSUNNY   49  41  74 N6        29.79S
SOMERSET*      CLOUDY    46  39  76 N6        29.82R
MONTICELLO*    CLOUDY    48  44  86 N15       29.83R
WILLIAMSBURG*  CLOUDY    46  45  93 NE7       29.79S
MIDDLESBORO*   CLOUDY    48  45  89 CALM      29.79S
HARLAN APT*    CLOUDY    46  39  76 W8        29.77S
HAZARD APT*    CLOUDY    48  43  81 W3        29.79R
BLACK MTN*       N/A     36  36 100 VRB6        N/A  WCI  31
PIKE CO APT*   CLOUDY    47  40  75 W6        29.77F
BIG SANDY APT* CLOUDY    50  40  68 NW6       29.78F
MOREHEAD APT*  CLOUDY    48  39  71 VRB6      29.83R
$$

KYZ035-036-041-042-044-050-067-078-099-051700
...CENTRAL KENTUCKY...

CITY           SKY/WX    TMP DP  RH WIND       PRES   REMARKS
MT STERLING*   CLOUDY    45  41  87 NE7       29.84R
FLEMING/MASON* CLOUDY    47  37  68 N10       29.84R
DANVILLE*      CLOUDY    45  37  76 N12       29.85R
RICHMOND*      CLOUDY    46  37  71 N8G16     29.81R
LEXINGTON      CLOUDY    49  39  68 N9        29.83R
FRANKFORT      CLOUDY    48  37  65 N9        29.84R
LOUISVILLE     CLOUDY    50  39  66 N16       29.87R
LEBANON*       PTSUNNY   48  39  71 N12       29.84S
BOWLING GREEN  CLOUDY    52  39  61 N10       29.88R
$$

KYZ091>093-OHZ055-061-077-WVZ005-015-034-035-042-051700
...SOUTHERN OHIO/WEST VIRGINIA...

CITY           SKY/WX    TMP DP  RH WIND       PRES   REMARKS
COVINGTON      CLOUDY    51  37  58 NW8       29.84R
COLUMBUS       PTSUNNY   47  45  93 N10       29.80R
DAYTON         CLOUDY    46  43  89 NW12      29.85R
WILMINGTON     CLOUDY    48  38  68 NW16      29.83R
HUNTINGTON     CLOUDY    52  38  58 N8        29.78S
CHARLESTON     CLOUDY    51  40  65 VRB7      29.76S
PINEVILLE*     CLOUDY    47  36  66 MISG      29.79S
BECKLEY        LGT RAIN  42  36  79 NW9       29.72S
$$

VAZ002-007-008-TNZ017-027-036-066-071-051700
...SOUTHWEST VIRGINIA/EAST TENNESSEE...

CITY           SKY/WX    TMP DP  RH WIND       PRES   REMARKS
WISE*          CLOUDY    45  34  65 NW7       29.76S
BRISTOL        LGT RAIN  47  38  71 N9        29.75S
MORRISTOWN*    MOSUNNY   48  43  81 N5        29.76S
SEVIERVILLE*   PTSUNNY   50  41  71 W10       29.78R
KNOXVILLE      LGT RAIN  49  43  80 W7        29.79S
OAK RIDGE      CLOUDY    51  43  74 VRB3      29.80S
CROSSVILLE     LGT RAIN  47  40  76 W9G18     29.79S
NASHVILLE      CLOUDY    57  38  48 NW17G30   29.85R
$$

...KEY TO REMARKS...
VSB - VISIBILITY IN MILES
WCI - WIND CHILL INDEX
HX  - HEAT INDEX

$$




USA.gov is the U.S. government's official web portal to all federal, state and local government web resources and services.